Regional Weather Roundup
Issued by NWS

Home | Current Version | Previous Version | Text Only | Print | Product List | Glossary On
Versions: 1 2 3 4 5 6 7 8 9 10 11 12 13 14 15 16 17 18 19 20 21 22 23 24 25 26 27 28 29 30 31 32 33 34 35 36 37 38 39 40 41 42 43 44 45 46 47 48 49 50
000
ASHW40 PHFO 251610
RWRHI

WEATHER ROUNDUP FOR HAWAII
NATIONAL WEATHER SERVICE HONOLULU HI
600 AM HST SUN JAN 25 2015

THIS IS AN AUTOMATED REPORT THAT HAS NOT BEEN QUALITY CONTROLLED.

NOTE..."FAIR" INDICATES FEW OR NO CLOUDS BELOW 12,000 FEET WITH NO
SIGNIFICANT WEATHER AND/OR OBSTRUCTIONS TO VISIBILITY.

* - THESE SITES REPORT LIMITED FIELDS

HIZ001>004-251700-
KAUAI-NIIHAU-

CITY           SKY/WX    TMP DP  RH WIND       PRES   REMARKS
LIHUE APT      CLOUDY    68  57  68 N8        30.07R
PORT ALLEN*      N/A     70 N/A N/A NE15G21     N/A
POIPU*           N/A     68 N/A N/A N9G17       N/A
PRINCEVILLE*     N/A     64 N/A N/A MISG        N/A
KOKOLE POINT*  NOT AVBL
MOLOAA DAIRY*  NOT AVBL
WAIMEA HTS*    NOT AVBL
PUU OPAE*      NOT AVBL
PUU LUA*       NOT AVBL
MAKAHA RIDGE*  NOT AVBL
$$

HIZ005>011-251700-
OAHU-

CITY           SKY/WX    TMP DP  RH WIND       PRES   REMARKS
HONOLULU       PTCLDY    67  62  84 N3        30.02R
KALAELOA       CLEAR     68  60  75 VRB7      30.03R
KANEOHE MCB    CLOUDY    69  63  81 NE16      30.05R
WHEELER FIELD  MOCLDY    64  60  89 NW10      30.04R
BELLOWS*       NOT AVBL
KAHUKU*        NOT AVBL
WHEELER*       NOT AVBL
WAIANAE HARBOR NOT AVBL
DILLINGHAM*      N/A     66  61  82 MISG        N/A
KAHUKU TRN*      N/A     64  57  77 NE7G16      N/A
KAWAILOA*        N/A    N/A N/A N/A NE10G17     N/A
KII*             N/A     72  63  73 NE16        N/A
MAKUA RANGE*     N/A     68  61  77 E13G22      N/A
OAHU FOREST NW NOT AVBL
SCHOFIELD BRK*   N/A     63  59  88 MISG        N/A
SCHOFIELD S*   NOT AVBL
WAIANAE VLY*   NOT AVBL
KUAOKALA*      NOT AVBL
HONOULIUULI*   NOT AVBL
MOKUOLOE IS*   NOT AVBL
PALEHUA*       NOT AVBL
WAIAWA PHB*    NOT AVBL
$$

HIZ012>013-251700-
MOLOKAI-

CITY           SKY/WX    TMP DP  RH WIND       PRES   REMARKS
MOLOKAI AIRPT  CLOUDY    67  65  93 N10       30.04
KALAUPAPA      NOT AVBL
MAKAPULAPAI*   NOT AVBL
MOLOKAI 1*     NOT AVBL
PUU ALII*      NOT AVBL
$$

HIZ016-251700-
KAHOOLAWE-

CITY           SKY/WX    TMP DP  RH WIND       PRES   REMARKS
KAHOOLAWE*     NOT AVBL
HAKIOAWA*      NOT AVBL
HONOKANAIA*      N/A     70  65  83 N20G37      N/A
KANELOA*         N/A     70  66  88 MISG        N/A
KEALIALALO*    NOT AVBL
LUA MAKIKA*    NOT AVBL
$$

HIZ014>015-251700-
LANAI-

CITY           SKY/WX    TMP DP  RH WIND       PRES   REMARKS
LANAI CITY     FAIR      65  65 100 NE24      30.04R
LANAI 1*       NOT AVBL
$$

HIZ017>028-251700-
MAUI-

CITY           SKY/WX    TMP DP  RH WIND       PRES   REMARKS
KAHULUI        CLOUDY    68  65  90 N16       30.04R FOG
KAPALUA-W MAUI LGT RAIN  66  64  94 NE15      30.03  FOG
HANA AIRPORT   RAIN      66  64  94 CALM      30.07S VSB 3/4
HANA*          NOT AVBL
HALEAKALA SUMM   N/A     46  12  25 NW23        N/A
MAALAEA BAY*   NOT AVBL
HALEAKALA*     NOT AVBL
KAUPO GAP*     NOT AVBL
KULA 1*          N/A    N/A N/A N/A E7          N/A
$$

HIZ023>026-251700-
BIG ISLAND OF HAWAII COAST AND LOWER SLOPES-

CITY           SKY/WX    TMP DP  RH WIND       PRES   REMARKS
KAILUA KONA    PTCLDY    73  67  81 N12       29.96R
HILO           LGT RAIN  73  69  87 N12       29.99S
HONOKAA*       NOT AVBL
KAWAIHAE MWT*  NOT AVBL
KAWAIHAE*        N/A     73 N/A N/A NE5         N/A
SOUTH POINT*   NOT AVBL
UPOLU AIRPORT* NOT AVBL
KAMUELA*       NOT AVBL
HAKALAU*         N/A     53  53 100 N3          N/A
KALOKO-HONOKO* NOT AVBL
PALI 2*          N/A     64  61  88 N10G16      N/A
KEALAKOMO*       N/A     72  68  88 E12         N/A
KAUPULEHU*     NOT AVBL
KAPAPALA*        N/A     64  61  90 CALM        N/A
LOWER KAHUKU*  NOT AVBL
PUHE CS*       NOT AVBL
PUHO CS*       NOT AVBL
PTA KEAMUKU*     N/A     61  59  94 CALM        N/A
WAIKOLOA*      NOT AVBL
$$

HIZ027>028-251700-
BIG ISLAND OF HAWAII INTERIOR AND SUMMMITS-

CITY           SKY/WX    TMP DP  RH WIND       PRES   REMARKS
BRADSHAW FIELD CLOUDY    49  45  86 SE7       30.29R
MK VISITOR CEN NOT AVBL
MAUNA KEA*       N/A     37   9  30 N26         N/A  WCI  26
MAUNA LOA*       N/A     43   9  24 MISG        N/A
MAUNA LOA 1*   NOT AVBL
PTA KIPUKA*      N/A     46  45  93 SE3         N/A
PTA RANGE 17*    N/A     52  50  93 E6          N/A
PTA WEST*        N/A     52  48  87 SE9         N/A
NENE CABIN*    NOT AVBL
AHUMOA*        NOT AVBL
PTA PORTABLE*  NOT AVBL
PUU MALI*      NOT AVBL
$$

HIC003-251700-
NORTHWEST ISLANDS-

CITY           SKY/WX    TMP DP  RH WIND       PRES   REMARKS
MIDWAY ISLAND  CLEAR     64  59  82 S17       30.12F
MIDWAY NOS*    NOT AVBL
FRENCH FRIGATE NOT AVBL
$$

PHZ110>124-180-251700-
BUOY REPORTS

STATION/POSITION TIME  TEMP    WIND        PRES    WAVE   SWELL
                       AIR SEA DIR/SP/G            HT/PER HT/DIR
                 (UTC) (F)     (DEG/KT/KT) (MB)    (FT/S) (FT/D)
BUOY 51001       NOT AVBL
BUOY 51101       1600   68 73   60/ 14/ 19 1019.3F  11/15  10/290
BUOY 51100       1500   69 74   30/ 17     1017.1R
BUOY 51003       1500   75 78   50/ 16/ 19 1015.4R  11/14  10
BUOY 51004       1540   72 77   90/ 10/ 14 1014.4R   8/13   8/320
BARBERS PT BUOY  NOT AVBL
WAIMEA BAY BUOY  1600      75                N/A    10/13   8/310
KAILUA BAY BUOY  1600      75                N/A     6/14   3/340
LANAI BUOY       1600      77                N/A     4/14   3/290
BARBERS PT 2     1600      77                N/A    10/13   8/300
PAUWELA MAUI     1600      76                N/A    10/14   8/310
HILO             1600      77                N/A    10/ 8
KANEOHE BAY BUOY 1600      75                N/A     6/14   3/340
HANALEI KAUAI    NOT AVBL
KAHULUI HARBOR   1600   70 76   50/ 11/ 16 1016.7S
HONOLULU HARBOR  1600   70 75   50/  5/ 13 1016.2S
KILO NALU        NOT AVBL
HILO HARBOR      1600   73      20/ 22/ 24 1015.0F
MOKUOLOE         1600      75              1017.3R
NAWILIWILI       1600      76                N/A
WHOTS BUOY       NOT AVBL
BUOY 51028       NOT AVBL
$$

......................KEY........................................
  SKY/WX - SKY CONDITIONS/PRESENT WEATHER
  TMP    - TEMPERATURE IN FAHRENHEIT
  DWPT   - DEWPOINT IN FAHRENHEIT
  RH     - RELATIVE HUMIDITY IN PERCENT
  WIND   - DIRECTION AND SPEED /MPH FOR ISLANDS...KTS FOR BUOYS/
  PRES   - MEAN SEA LEVEL PRESSURE IN INCHES OF HG
  VSB    - VISIBILITY IN MILES
  HX     - HEAT INDEX
  WCI    - WIND CHILL INDEX
  VRB    - VARIABLE WIND DIRECTION
  N/A    - NOT AVAILABLE


USA.gov is the U.S. government's official web portal to all federal, state and local government web resources and services.